Weather History for HELX - December, 2013

Change the Weather History Date:

Sunday, December 29, 2013

  Actual Average Record
Temperature  
Mean Temperature 59 °F -  
Max Temperature 69 °F 70 °F 86 °F (2000)
Min Temperature 49 °F 44 °F 41 °F (2003)
Degree Days  
Heating Degree Days 6    
Growing Degree Days 9 (Base 50)    
Moisture  
Dew Point 38 °F    
Average Humidity 47    
Maximum Humidity 67    
Minimum Humidity 19    
Precipitation  
Precipitation 0.00 in 0.00 in - ()
Sea Level Pressure  
Sea Level Pressure 30.02 in    
Wind  
Wind Speed 2 mph ()    
Max Wind Speed 9 mph    
Max Gust Speed -    
Visibility 4.9 miles    
Events      
Averages and records for this station are not official NWS values.
T = Trace of Precipitation, MM = Missing Value Source: Averaged Metar Reports

Daily Weather History Graph

Daily Weather History Graph

Search for Another Location

Airport or City:

Trip Planner

Search our weather history database for the weather conditions in past years. The results will help you decide how hot, cold, wet, or windy it might be!

Date:

Astronomy

Dec. 29, 2013 Rise Set
Actual Time 6:34 AM EET 5:07 PM EET
Civil Twilight 6:09 AM EET 5:33 PM EET
Nautical Twilight 5:40 AM EET 6:01 PM EET
Astronomical Twilight 5:12 AM EET 6:29 PM EET
Moon 3:05 AM EET (12/29) 2:21 PM EET (12/29)
Length of Visible Light 11h 23m
Length of Day
10h 33m
Waning Crescent, 13% of the Moon is Illuminated
Dec 29
Waning Crescent
Jan 1
New
Jan 8
First Quarter
Jan 16
Full
Jan 24
Last Quarter

Hourly Weather History & Observations

Time (EET) Temp. Dew Point Humidity Pressure Visibility Wind Dir Wind Speed Gust Speed Precip Events Conditions
12:00 AM 57.2 °F 37.4 °F 48% 29.98 in - SSE 2.3 mph - N/A   Clear
1:00 AM 57.2 °F 37.4 °F 48% 29.98 in - SSE 2.3 mph - N/A   Clear
2:00 AM 56 °F 37 °F 38% 29.98 in 6 mi Calm Calm - -  
2:00 AM 55.4 °F 37.4 °F 51% 29.98 in - Calm Calm - N/A   Clear
3:00 AM 53.6 °F 37.4 °F 54% 29.98 in - Calm Calm - N/A   Clear
4:00 AM 50.0 °F 39.2 °F 66% 29.98 in - SW 3.5 mph - N/A   Clear
5:00 AM 50.0 °F 39.2 °F 66% 29.98 in - Calm Calm - N/A   Clear
6:00 AM 50.0 °F 39.2 °F 66% 30.01 in - South 2.3 mph - N/A   Clear
7:00 AM 50.0 °F 37.4 °F 62% 30.04 in - Calm Calm - N/A   Clear
8:00 AM 54 °F 39 °F 46% 30.07 in 4 mi SSE 2.3 mph - -   Haze
8:00 AM 53.6 °F 39.2 °F 58% 30.06 in 3.7 mi SSE 2.3 mph - N/A   Unknown
9:00 AM 60.8 °F 41.0 °F 48% 30.06 in - SW 6.9 mph - N/A   Clear
10:00 AM 64.4 °F 35.6 °F 34% 30.06 in - NW 6.9 mph - N/A   Clear
11:00 AM 66.2 °F 35.6 °F 32% 30.06 in - NW 4.6 mph - N/A   Clear
12:00 PM 68.0 °F 33.8 °F 28% 30.04 in - NW 6.9 mph - N/A   Clear
1:00 PM 68.0 °F 33.8 °F 28% 30.01 in - WNW 6.9 mph - N/A   Clear
2:00 PM 69 °F 36 °F 19% 30.00 in 6 mi WNW 9.2 mph - -  
2:00 PM 68.0 °F 35.6 °F 30% 30.01 in - WNW 9.2 mph - N/A   Clear
3:00 PM 68.0 °F 37.4 °F 33% 30.01 in - WNW 3.5 mph - N/A   Clear
4:00 PM 68.0 °F 39.2 °F 35% 30.01 in - NW 6.9 mph - N/A   Clear
5:00 PM 64.4 °F 39.2 °F 40% 30.01 in - NW 4.6 mph - N/A   Clear
6:00 PM 60.8 °F 41.0 °F 48% 30.01 in - Calm Calm - N/A   Clear
7:00 PM 60.8 °F 39.2 °F 45% 30.04 in - Calm Calm - N/A   Clear
8:00 PM 55.4 °F 41.0 °F 58% 30.06 in - Calm Calm - N/A   Clear
9:00 PM 55.4 °F 41.0 °F 58% 30.06 in - WSW 3.5 mph - N/A   Clear
10:00 PM 55.4 °F 42.8 °F 63% 30.06 in - Calm Calm - N/A   Clear
11:00 PM 53.6 °F 42.8 °F 67% 30.06 in - WSW 3.5 mph - N/A   Clear